Preview of NWS' New Version of Forecast
This preview is not operational and should not be used for support decisions.

Regional Weather Roundup (RWR)

Issued by National Weather Service (NWS)

                            
000
ASUS45 KABQ 220410
RWRNM 
NEW MEXICO REGIONAL WEATHER ROUNDUP
NATIONAL WEATHER SERVICE ALBUQUERQUE NM
1000 PM MDT WED AUG 21 2019

NOTE: "FAIR" MEANS FEW OR NO CLOUDS BELOW 12,000 FEET AGL WITH NO
       SIGNIFICANT WEATHER OR OBSTRUCTIONS TO VISION.

      THIS PRODUCT IS RELEASED AS TWO VERSIONS.  ONE VERSION NEAR
      THE TOP OF THE HOUR CONTAINING PRELIMINARY DATA FROM ALBUQUERQUE
      AND OTHER STATIONS.  A FINAL VERSION WITH ADDITIONAL DATA IS 
      ISSUED ABOUT 10 MINUTES AFTER THE HOUR.
 
NMZ501-503-504-510>518-220500-
NORTHWEST PLATEAU/NORTHCENTRAL MOUNTAINS
  
CITY           SKY/WX    TMP DP  RH WIND       PRES   REMARKS
FARMINGTON     FAIR      73  37  27 VRB3      30.09R                  
LOS ALAMOS       N/A     64  48  56 SW7       30.34F                  
SANTA FE       FAIR      64  55  72 S5        30.27F                  
TAOS             N/A     57  48  72 E8        30.33S                  
ANGEL FIRE     FAIR      48  43  83 CALM      30.42S                  

$$
NMZ402-403-502-505>509-220500-
WESTCENTRAL MOUNTAINS/SOUTHWEST MOUNTAINS
  
CITY           SKY/WX    TMP DP  RH WIND       PRES   REMARKS
GALLUP         FAIR      76  40  27 NE6       30.19R                  
GRANTS         FAIR      72  45  38 E21G28    30.27R                  
SILVER CITY    FAIR      71  54  55 CALM      30.16S                  

$$
NMZ407-409-411-412-220500-
SOUTHERN DESERTS
  
CITY           SKY/WX    TMP DP  RH WIND       PRES   REMARKS
DEMING         FAIR      76  57  51 SE5       30.08F                  
LAS CRUCES     FAIR      75  56  51 W12       30.09R                  
HOLLOMAN AFB   MOCLDY    80  55  42 CALM      30.09F                  
ALAMOGORDO     MOCLDY    75  55  50 E8        30.08F                  
T OR C         FAIR      73  57  57 NW6       30.11R                  

$$
NMZ519>523-220500-
CENTRAL VALLEYS/CENTRAL HIGHLANDS
  
CITY           SKY/WX    TMP DP  RH WIND       PRES   REMARKS
ALBUQUERQUE    FAIR      69  53  56 E22G31    30.19R                  
MORIARTY ARPT  FAIR      60  60  99 W3        30.31R                  
CLINES CORNERS CLOUDY    60  53  77 E3          N/A                   
BELEN          FAIR      74  45  35 SE9       30.16R                  
SOCORRO        FAIR      69  50  51 SW5       30.14F                  

$$
NMZ524>526-539-540-220500-
SOUTHCENTRAL MOUNTAINS
  
CITY           SKY/WX    TMP DP  RH WIND       PRES   REMARKS
RUIDOSO        MOCLDY    61  50  67 W13       30.32R                  

$$
NMZ527>531-220500-
NORTHEAST HIGHLANDS/NORTHEAST PLAINS
  
CITY           SKY/WX    TMP DP  RH WIND       PRES   REMARKS
LAS VEGAS      FAIR      62  47  57 SW10      30.29F                  
RATON          FAIR      61  47  59 VRB6      30.21S                  
CLAYTON        LGT RAIN  67  58  72 SW5       30.20R                  

$$
NMZ532>537-220500-
EASTCENTRAL PLAINS
  
CITY           SKY/WX    TMP DP  RH WIND       PRES   REMARKS
SANTA ROSA     FAIR      70  64  80 S5        30.17S                  
TUCUMCARI      FAIR      66  60  81 SE15      30.13R                  
CANNON AFB     PTCLDY    66  60  82 N22G28    30.15S                  
CLOVIS AIRPORT CLOUDY    66  61  84 N21       30.16F                  

$$
NMZ028-029-538-220500-
SOUTHEAST PLAINS
  
CITY           SKY/WX    TMP DP  RH WIND       PRES   REMARKS
ROSWELL        MOCLDY    82  52  35 N24G35    30.08R                  
ARTESIA        FAIR      86  54  32 SE8       30.03R                  
CARLSBAD       FAIR      86  53  32 MISG      29.99R                  
HOBBS          FAIR      79  54  41 SE5       30.05R                  


$$